RH
12 8 10 13 13 19 22 24 20 44 48 49 46 46 39 39 48 56 64 63 52 40 33 39 54 52 44 45 51 68 67 41 31 53 74 81 72 51 49 44 43 71 99 98 70 98 99 98 99
7 6 12 13 14 17 21 21 35 36 42 53 52 50 47 47 52 57 62 61 53 40 32 40 45 43 44 42 38 36 36 38 55 67 76 72 55 53 43 37 73 94 98 99 81 78 67 84 73
4 7 14 16 19 14 24 20 22 26 51 50 49 50 50 57 54 45 47 50 53 43 36 37 38 41 42 44 42 37 39 37 52 77 77 63 54 45 36 42 87 98 99 98 96 48 33 38 39
6 9 14 16 17 16 18 17 11 19 50 54 49 42 51 56 55 52 52 56 54 47 42 36 33 35 35 45 41 32 31 38 65 84 82 58 49 36 43 60 94 98 100 97 62 25 18 14 15
6 9 14 17 17 16 16 13 10 13 40 38 46 42 62 58 53 56 53 61 60 51 45 41 35 28 29 40 44 36 32 32 67 86 65 55 37 36 47 42 83 96 97 92 47 40 22 13 10
8 9 10 11 14 13 9 8 8 10 14 25 44 49 73 64 64 63 59 63 64 56 49 46 40 33 29 31 46 40 36 46 75 69 63 46 40 37 44 45 70 79 67 74 56 49 33 12 11
9 9 8 9 9 9 7 8 7 27 29 18 46 43 87 74 63 62 60 66 68 60 54 50 45 41 33 31 48 40 58 66 70 72 60 48 39 41 45 44 58 35 45 48 50 38 22 12 11
8 10 12 11 9 8 7 8 7 39 62 59 54 47 80 80 79 85 66 69 73 66 60 55 50 48 40 42 50 40 56 79 78 74 60 46 35 44 48 48 76 47 48 42 52 46 24 18 12
8 10 10 9 9 8 9 8 7 66 73 77 72 79 61 61 93 85 89 87 77 72 67 60 54 53 46 43 53 48 53 75 81 72 53 43 32 43 49 53 64 50 55 65 60 53 40 28 20
10 10 9 10 9 12 11 10 9 28 60 76 79 77 81 73 98 99 99 98 87 87 85 66 59 58 63 54 71 58 61 77 77 59 45 40 37 46 49 52 58 56 62 72 64 52 36 48 62
12 10 11 13 15 16 12 10 13 20 12 45 73 97 98 100 99 98 100 98 97 88 84 74 67 62 64 66 83 81 49 69 65 48 42 44 42 50 50 52 62 77 69 68 68 55 54 42 43
16 19 21 18 17 12 12 12 14 23 28 68 89 91 98 100 100 99 99 100 99 84 88 93 76 68 64 54 58 68 54 51 56 49 48 53 44 47 51 46 59 76 56 61 66 60 63 61 50
18 21 18 13 13 11 12 13 13 38 46 97 100 100 98 100 100 100 98 99 99 98 98 97 81 74 68 57 52 66 55 45 51 60 50 58 49 44 51 44 41 49 56 66 68 64 72 73 67
24 16 12 12 13 11 13 25 27 47 49 80 94 97 100 99 98 100 99 98 95 98 96 97 88 83 76 64 59 63 59 42 46 62 54 52 55 51 48 42 41 52 59 65 69 72 77 76 67
23 19 13 12 13 9 14 20 57 55 47 52 55 72 93 100 100 100 99 98 75 89 90 98 98 96 87 76 70 60 49 47 47 57 58 54 57 55 50 42 40 50 60 69 71 77 82 79 71
14 13 15 12 14 10 13 31 62 60 51 52 54 54 53 89 100 99 100 100 100 100 100 99 99 100 98 92 89 62 60 60 56 53 56 62 47 51 52 42 38 54 61 68 72 81 80 83 78
13 14 14 12 16 13 12 21 66 63 58 58 58 57 59 50 82 99 100 100 100 100 100 99 100 99 99 99 97 78 72 58 52 60 63 64 63 64 52 38 35 56 64 70 77 79 82 82 78
15 14 14 16 20 13 16 71 65 67 64 65 64 61 62 62 59 66 92 100 99 99 100 100 100 99 100 100 95 96 84 71 60 64 66 64 70 76 62 37 41 59 68 74 77 78 79 84 81
16 22 22 18 18 18 51 66 61 61 62 63 66 65 65 67 65 60 98 100 99 100 99 84 99 99 99 99 93 99 90 97 64 58 69 68 76 80 73 42 47 59 66 67 74 74 78 83 85
26 26 34 26 25 21 52 65 57 56 58 64 67 69 68 68 65 56 75 100 100 100 100 99 97 87 97 98 100 100 94 75 51 53 72 72 77 85 84 58 44 54 62 70 74 73 75 81 83
42 40 42 40 35 18 30 59 55 54 57 58 64 69 72 72 74 71 72 94 100 100 100 99 99 100 100 99 100 100 100 98 73 55 83 76 74 88 91 80 59 54 59 66 70 71 75 71 74
33 46 45 46 40 25 24 16 39 52 53 54 63 69 75 76 76 71 71 81 97 99 100 100 98 100 99 100 99 98 97 98 75 72 80 70 78 80 93 93 82 71 66 70 75 76 74 75 71
45 47 48 48 47 41 34 31 27 53 56 58 60 67 79 83 81 81 65 73 89 98 99 100 100 100 100 100 100 100 100 94 92 85 95 75 72 75 76 92 95 85 76 78 78 77 78 74 76
47 48 44 40 44 45 33 26 34 71 78 67 59 61 78 86 86 87 75 65 80 98 100 99 100 90 100 89 99 100 99 97 98 87 95 74 59 73 74 82 86 93 90 85 83 80 82 78 74
56 52 40 46 52 38 42 36 62 68 65 70 67 66 69 85 91 98 86 65 71 87 98 100 100 92 94 98 100 99 100 100 81 73 72 82 82 74 73 82 84 86 90 91 88 85 82 84 81
63 68 66 64 53 47 48 46 67 66 64 71 73 73 68 80 95 100 99 79 70 80 96 100 100 100 100 100 100 99 100 98 95 80 82 97 93 77 75 75 81 77 80 86 93 90 86 85 85
59 74 73 83 74 77 53 75 73 61 65 68 77 76 71 81 94 100 99 88 76 77 89 98 100 100 100 100 99 100 100 100 97 72 89 100 98 83 93 90 78 82 80 74 82 90 89 86 84
61 61 87 83 80 64 64 76 79 81 82 72 75 81 78 84 93 100 100 98 85 79 82 91 99 100 100 99 100 100 100 98 98 93 94 83 96 99 98 99 85 93 95 88 84 84 88 89 84
55 63 64 81 82 76 76 80 80 82 74 75 69 82 82 84 95 100 98 99 88 92 83 84 87 98 100 100 99 100 100 100 100 99 85 86 86 76 74 74 98 98 97 99 98 91 88 85 79
52 62 59 81 79 84 88 84 62 64 67 60 59 75 68 77 97 100 98 98 84 97 87 78 76 90 92 99 100 100 100 100 99 99 94 99 99 90 98 99 100 94 89 85 89 87 86 82 80
Wind_Speed
9 9 6 2 1 1 2 3 2 6 6 4 13 4 8 9 5 2 10 28 28 28 26 26 25 24 22 22 21 21 21 20 17 18 20 19 14 12 11 10 10 14 18 19 20 24 24 25 25
7 6 1 2 1 2 3 2 8 5 3 9 8 4 5 3 5 9 26 31 30 29 27 27 26 25 24 23 22 21 20 19 18 19 19 17 11 10 9 10 13 16 18 20 20 23 23 22 20
6 3 1 3 3 3 7 3 2 4 6 4 3 4 4 3 10 18 28 33 33 30 28 27 26 25 23 22 22 21 20 20 19 19 19 14 10 9 9 10 16 15 18 18 21 20 20 19 18
2 1 5 1 3 3 2 6 1 3 5 7 3 2 4 5 14 22 34 34 35 32 29 28 26 23 22 21 20 20 20 20 20 19 15 12 10 9 9 11 16 14 16 19 19 18 16 16 14
1 3 1 2 3 4 2 3 4 5 5 5 8 2 2 6 12 25 34 35 36 34 31 29 26 23 21 20 19 19 20 19 20 17 14 12 10 9 9 8 16 16 16 17 16 15 14 15 15
3 3 2 4 4 3 4 6 3 3 9 9 5 6 3 6 11 29 33 34 35 33 32 30 26 24 22 20 20 19 18 21 19 17 14 12 10 9 8 9 12 15 16 15 14 13 12 14 15
3 2 2 3 1 2 1 14 3 3 7 6 3 8 3 12 16 23 35 35 36 33 32 30 28 24 21 20 21 20 20 21 20 16 13 11 9 8 8 8 12 12 13 12 11 12 13 14 15
5 3 4 2 2 2 5 12 4 2 1 4 4 5 6 20 21 27 36 37 36 35 32 31 29 27 24 23 22 21 20 22 19 15 12 10 9 8 8 8 11 12 11 15 14 12 12 14 14
5 2 2 3 5 2 10 8 7 3 1 1 2 1 3 25 26 32 31 36 38 36 34 31 30 28 26 25 24 21 21 21 19 15 12 10 10 10 10 10 12 12 13 13 13 12 12 13 13
4 1 4 2 2 4 10 7 14 5 0 2 1 0 10 28 29 35 35 37 38 37 34 33 31 29 27 26 25 24 22 22 20 16 14 12 10 10 10 11 12 12 13 10 11 11 11 12 13
3 2 2 1 6 7 6 9 11 12 4 13 17 8 16 27 32 33 33 36 40 37 35 35 32 30 29 27 26 24 25 24 21 17 15 13 12 12 12 13 15 14 14 13 11 12 12 11 12
4 4 4 6 9 8 5 8 7 17 17 23 9 11 18 26 31 32 33 35 37 38 36 33 33 32 31 30 28 27 26 24 22 18 16 14 13 12 12 13 15 15 13 14 11 12 12 11 10
4 3 6 10 6 16 3 16 6 29 32 17 4 6 15 21 21 25 28 29 30 32 33 33 34 33 33 31 30 29 28 25 21 20 16 14 13 12 12 13 14 14 14 13 12 11 10 9 8
2 10 11 14 10 14 11 15 5 25 26 14 11 6 4 16 20 21 22 30 31 30 31 32 33 34 34 33 32 31 28 25 23 21 17 15 14 14 13 13 15 16 15 13 10 9 8 7 6
3 5 8 20 17 6 5 9 15 21 19 18 18 13 5 4 12 19 19 25 28 33 35 36 35 35 36 34 34 31 28 26 25 22 18 16 15 15 14 15 18 18 16 14 12 9 8 6 5
5 4 2 9 20 10 7 5 15 21 18 22 21 20 15 9 2 12 11 21 26 28 35 35 37 37 36 34 35 33 30 28 26 23 20 18 17 16 15 18 19 20 17 14 10 8 9 8 5
8 3 4 2 18 5 9 5 14 18 19 22 22 22 22 17 5 9 11 21 28 32 34 36 37 38 38 36 36 34 33 30 28 26 23 21 19 16 17 19 21 21 18 15 11 9 12 11 8
3 2 2 4 10 10 8 8 11 16 19 20 22 24 24 23 21 13 9 12 23 31 35 36 37 38 38 38 36 36 33 31 30 27 25 23 23 19 17 21 23 23 20 17 14 12 13 13 10
6 5 3 3 6 4 4 6 10 15 20 24 24 26 26 26 23 17 11 3 18 25 31 34 38 39 38 41 43 41 36 33 29 27 28 26 26 22 19 23 26 26 22 18 16 15 14 16 15
6 3 4 2 6 5 4 3 5 13 18 19 22 24 26 29 28 24 16 7 6 17 25 31 34 38 41 44 45 42 37 35 27 28 31 29 27 25 22 23 28 27 25 22 20 18 17 19 17
6 4 2 2 8 1 1 4 2 3 10 18 22 22 23 26 29 29 26 18 11 8 19 27 33 42 39 42 43 43 36 33 32 33 32 31 30 29 26 23 25 28 26 25 21 20 19 18 19
1 5 4 4 5 2 2 4 4 6 5 16 23 27 27 27 26 27 27 24 22 13 11 19 30 35 40 43 43 45 41 39 36 37 35 33 33 31 29 27 27 27 27 27 25 22 21 20 20
2 8 5 5 5 3 5 5 3 5 7 17 23 23 25 26 25 25 26 26 24 19 13 13 22 29 34 40 43 47 44 43 41 38 40 36 33 33 31 31 31 31 31 27 25 24 25 23 23
10 4 1 2 2 4 4 6 1 5 10 13 20 24 23 26 26 24 23 21 22 17 10 14 17 24 34 33 40 47 45 42 39 39 36 32 36 36 37 35 33 32 32 31 27 26 25 24 24
8 4 2 3 3 2 3 4 3 6 11 11 19 24 25 23 24 25 25 24 21 18 11 2 16 24 30 30 38 37 44 42 43 40 34 34 37 39 40 40 38 36 35 31 27 26 28 27 28
4 4 1 3 3 2 4 5 2 6 10 13 16 19 23 23 23 24 23 23 20 18 14 4 5 17 25 34 32 35 44 40 46 38 39 35 38 43 42 41 38 35 36 33 30 28 27 29 29
3 2 6 4 2 4 2 2 7 11 15 20 20 20 24 25 23 24 22 21 19 16 14 8 1 10 19 29 29 21 33 35 35 31 40 37 44 46 43 42 38 39 37 30 27 29 28 27 28
5 4 0 1 4 4 2 2 3 15 16 17 20 22 23 25 24 24 22 21 17 15 13 10 6 8 13 19 23 22 16 14 29 36 38 40 33 19 26 28 39 37 38 31 28 27 29 29 29
7 3 3 4 4 4 4 1 3 11 14 15 21 21 23 25 25 25 23 20 18 16 13 11 6 4 11 15 21 20 18 17 17 15 13 27 32 30 26 25 31 15 25 26 27 27 29 30 30
5 5 3 3 2 2 3 0 5 10 14 17 17 21 22 23 26 24 21 19 17 17 14 9 6 5 5 11 13 14 13 17 16 14 15 18 18 26 20 22 22 26 9 17 27 28 29 30 33
Wind_Direction
319 315 319 332 244 308 104 109 283 176 179 200 168 180 195 168 167 174 164 167 170 167 164 164 162 161 158 156 157 158 158 157 155 149 145 144 143 135 121 111 111 110 115 118 117 117 116 116 117
321 314 296 93 98 205 109 292 173 197 235 170 160 153 152 177 135 139 150 162 171 167 165 163 162 160 158 156 156 159 161 160 157 153 149 142 143 129 116 106 107 114 119 117 117 121 122 118 117
325 326 181 87 106 206 149 146 102 325 175 168 202 201 171 165 165 158 161 163 170 169 166 164 163 163 161 159 160 161 164 162 158 154 147 145 141 127 118 108 112 122 121 124 118 122 122 121 120
311 96 62 134 174 212 223 162 59 320 195 257 279 227 180 152 164 172 166 166 171 171 168 166 165 165 161 161 163 162 161 158 157 157 153 151 144 134 126 122 121 123 128 126 125 126 120 118 115
71 75 106 115 207 279 247 324 301 271 231 241 206 194 116 157 175 170 170 171 174 171 169 167 169 167 165 164 168 165 161 161 160 161 157 153 146 139 135 118 124 137 137 132 125 117 118 117 110
97 94 173 226 207 258 284 356 337 245 241 251 210 150 126 158 174 167 174 177 177 173 170 170 170 171 168 168 170 170 166 160 164 160 160 155 148 144 138 128 138 136 134 132 126 120 121 118 112
105 122 188 169 209 267 89 350 359 288 270 237 209 163 163 158 171 175 177 178 177 178 174 172 173 173 172 169 173 175 168 162 163 162 162 158 154 152 141 138 138 128 126 127 128 127 124 118 115
90 78 141 201 172 193 8 337 323 318 343 133 175 192 179 177 170 170 175 177 178 179 178 178 175 176 175 172 178 179 172 168 167 167 168 168 161 158 145 140 144 138 128 123 114 116 115 120 121
87 78 197 193 178 359 358 352 349 15 114 39 199 286 222 172 168 171 174 177 180 181 181 180 179 179 179 176 179 180 178 176 174 173 176 177 173 167 150 153 152 144 131 122 114 110 118 125 123
80 154 210 324 335 357 331 339 331 350 294 56 298 341 162 172 173 174 177 178 181 180 180 184 184 183 181 179 178 180 181 182 180 181 181 183 181 174 160 157 158 149 139 124 118 110 111 119 123
109 136 162 26 -0 351 335 337 21 353 29 357 314 176 163 167 173 175 179 183 182 183 184 186 187 186 186 182 181 181 187 187 182 185 186 186 188 183 168 163 164 162 156 145 132 122 118 122 126
119 92 24 3 10 14 330 322 60 36 331 327 289 202 173 177 179 181 181 182 184 188 187 186 191 191 191 192 191 192 191 191 188 187 188 193 196 192 181 181 175 175 163 151 144 137 122 117 123
84 75 71 33 61 21 66 30 97 12 360 9 89 167 182 180 181 183 188 183 189 193 192 193 197 197 199 197 197 198 197 194 191 191 191 196 202 202 193 189 181 174 160 159 149 144 132 121 126
49 94 64 19 26 32 66 39 62 352 355 26 42 35 219 194 197 192 181 185 197 202 202 203 202 204 205 202 203 204 201 198 194 197 195 196 204 207 202 194 184 175 167 164 159 148 145 131 129
74 143 77 18 353 12 354 34 21 350 7 31 26 24 20 215 235 216 202 208 207 208 204 210 206 210 209 206 207 211 209 204 198 197 198 199 202 205 210 200 190 180 177 175 168 170 174 159 151
35 62 100 32 12 326 329 111 16 9 19 31 22 18 20 20 329 200 225 236 221 215 211 212 214 213 215 213 212 215 213 211 203 198 198 199 197 203 209 205 197 189 188 187 187 203 201 192 190
27 78 31 93 18 319 11 94 15 16 28 30 22 17 14 11 34 201 228 225 231 220 218 212 219 216 217 219 219 218 218 215 209 202 199 199 197 201 206 206 202 198 197 198 205 215 214 210 206
49 61 26 27 10 26 52 70 34 25 34 30 19 14 12 9 4 352 319 253 227 227 225 225 223 225 220 218 226 224 222 219 214 205 204 202 203 203 204 205 204 204 205 206 213 219 214 212 218
99 93 59 12 7 6 85 70 39 31 34 27 19 11 7 4 356 354 346 334 221 227 239 234 228 226 220 218 225 222 220 219 221 210 210 208 207 208 208 206 204 207 211 215 218 220 218 216 220
58 79 22 294 348 333 176 121 70 43 40 31 18 11 3 357 356 353 348 348 193 216 217 239 236 230 224 221 227 229 222 224 228 221 216 213 213 214 213 212 210 212 216 219 222 221 220 218 222
60 54 9 326 325 299 137 230 198 42 35 21 18 9 4 1 355 352 345 334 320 236 226 219 215 230 231 222 223 228 225 229 224 228 224 217 216 216 216 215 216 218 222 227 229 228 226 226 225
148 354 282 302 335 294 340 293 210 339 350 21 8 1 357 353 352 351 347 334 324 300 266 232 229 227 229 229 225 227 226 219 224 224 227 222 221 221 221 218 218 221 224 228 231 231 232 231 230
345 326 305 293 254 232 201 239 132 7 355 356 356 354 348 347 346 347 344 336 327 314 292 240 227 228 230 233 236 233 227 227 225 220 228 226 224 224 226 227 226 223 225 228 231 232 233 234 237
314 298 327 113 173 234 177 227 114 13 339 339 344 351 347 343 339 340 340 329 324 314 318 235 233 225 230 240 244 235 235 228 226 225 228 229 232 224 227 228 229 232 231 230 232 234 238 239 243
4 346 277 222 205 267 130 219 26 23 353 341 338 342 344 340 338 336 340 335 325 315 310 297 217 230 233 235 245 244 239 231 234 235 236 241 240 235 228 229 227 234 233 230 231 238 239 241 245
347 347 349 293 297 315 223 243 143 48 356 340 331 335 341 341 338 334 334 335 329 315 311 310 160 188 217 215 216 229 232 233 239 230 234 243 241 246 240 236 234 232 238 229 227 234 241 243 247
358 39 343 286 253 268 197 120 195 341 350 347 345 343 346 343 338 332 329 331 330 315 305 306 193 159 188 210 224 219 219 212 216 230 243 250 245 245 253 251 239 238 234 233 232 234 239 246 249
35 346 275 226 281 269 190 224 315 344 337 334 340 342 341 343 339 331 330 328 320 322 301 299 286 163 165 193 213 215 206 198 211 220 232 242 256 252 260 263 252 241 233 235 234 238 245 247 254
20 29 335 286 268 282 297 121 335 337 334 328 328 334 334 337 335 329 332 327 321 322 308 294 285 209 166 189 201 214 214 212 214 240 225 227 244 262 265 257 251 256 231 236 239 244 248 253 258
64 13 349 283 314 321 281 184 344 332 334 334 336 334 332 332 330 331 332 334 330 322 321 310 293 233 201 193 199 205 207 214 216 213 209 220 233 234 251 249 248 263 252 253 247 244 243 251 256